Location: Izdebno
(52.6670°N, 16.2170°E)
Time: 13:02:05
(UTC+02:00)

Vanguard 2 - Pass Details

Date: 05 February 2023
Orbit: 553 x 2927 km, 32.9° (Epoch: 26 March)

Event Time Altitude Azimuth Distance (km) Brightness Sun altitude
Rises 22:27:22 0° 237° (WSW) 5,502 11.9 -48.0°
Reaches altitude 10° 22:31:03 10° 229° (SW) 4,800 11.5 -48.4°
Enters shadow 22:31:55 13° 227° (SW) 4,653 11.4 -48.4°
Maximum altitude 22:43:29 35° 171° (S) 3,821 - -49.4°
Drops below altitude 10° 22:58:23 10° 115° (ESE) 5,745 - -50.6°
Sets 23:03:18 0° 108° (ESE) 6,679 - -50.9°
